Lincoln, NE

7:39 PM CST on January 16, 2018 (GMT -0600)
Lincoln Municipal

Weather History for KLNK - May, 2013

Change the Weather History Date:

Tuesday, May 28, 2013

  Actual Average Record
Temperature  
Mean Temperature 71 °F 66 °F  
Max Temperature 82 °F 78 °F 98 °F (1895)
Min Temperature 59 °F 55 °F 34 °F (1947)
Degree Days  
Heating Degree Days 0 2  
Month to date heating degree days 185 142  
Since 1 July heating degree days 6306 6035  
Cooling Degree Days 6 4  
Month to date cooling degree days 73 53  
Year to date cooling degree days 77 67  
Growing Degree Days 20 (Base 50)    
Moisture  
Dew Point 62 °F    
Average Humidity 74    
Maximum Humidity 100    
Minimum Humidity 47    
Precipitation  
Precipitation T in 0.13 in 1.97 in (1905)
Month to date precipitation 6.30 3.85  
Year to date precipitation 13.71 9.90  
Snow  
Snow 0.00 in 0.00 in - ()
Month to date snowfall 2.7 0.1  
Since 1 July snowfall 27.5 26.0  
Snow Depth 0.00 in    
Sea Level Pressure  
Sea Level Pressure 29.68 in    
Wind  
Wind Speed 7 mph (NE)    
Max Wind Speed 23 mph    
Max Gust Speed 31 mph    
Visibility 7 miles    
Events Fog , Thunderstorm    
T = Trace of Precipitation, MM = Missing Value Source: NWS Daily Summary

Daily Weather History Graph

Daily Weather History Graph

Search for Another Location

Airport or City:

Trip Planner

Search our weather history database for the weather conditions in past years. The results will help you decide how hot, cold, wet, or windy it might be!

Date:

Astronomy

May. 28, 2013 Rise Set
Actual Time 5:59 AM CDT 8:49 PM CDT
Civil Twilight 5:27 AM CDT 9:22 PM CDT
Nautical Twilight 4:46 AM CDT 10:03 PM CDT
Astronomical Twilight 3:59 AM CDT 10:50 PM CDT
Moon No Moon Rise 9:49 AM CDT (5/28)
Length of Visible Light 15h 55m
Length of Day
14h 50m
Waning Gibbous, 82% of the Moon is Illuminated
May 28
Waning Gibbous
May 31
Last Quarter
Jun 8
New
Jun 16
First Quarter
Jun 23
Full

Hourly Weather History & Observations

Time (CDT) Temp. Heat Index Dew Point Humidity Pressure Visibility Wind Dir Wind Speed Gust Speed Precip Events Conditions
12:54 AM 64.9 °F - 62.1 °F 90% 29.65 in 10.0 mi Calm Calm - N/A   Overcast
1:54 AM 64.0 °F - 62.1 °F 93% 29.65 in 10.0 mi North 3.5 mph - 0.00 in   Mostly Cloudy
2:54 AM 64.0 °F - 63.0 °F 96% 29.65 in 10.0 mi NNE 3.5 mph - N/A   Overcast
3:54 AM 64.0 °F - 63.0 °F 96% 29.68 in 7.0 mi North 6.9 mph - N/A   Overcast
4:02 AM 64.4 °F - 62.6 °F 94% 29.71 in 7.0 mi NNE 4.6 mph - N/A   Overcast
4:15 AM 62.6 °F - 62.6 °F 100% 29.71 in 6.0 mi Calm Calm - N/A   Scattered Clouds
4:54 AM 62.1 °F - 61.0 °F 96% 29.69 in 6.0 mi North 3.5 mph - N/A   Clear
5:35 AM 60.8 °F - 59.0 °F 94% 29.71 in 2.5 mi North 6.9 mph - N/A   Scattered Clouds
5:51 AM 60.8 °F - 60.8 °F 100% 29.71 in 0.8 mi North 6.9 mph - N/A   Mostly Cloudy
5:54 AM 60.1 °F - 60.1 °F 100% 29.69 in 0.5 mi North 6.9 mph - N/A Fog Fog
6:09 AM 60.8 °F - 60.8 °F 100% 29.71 in 1.5 mi North 6.9 mph - N/A   Mostly Cloudy
6:14 AM 60.8 °F - 60.8 °F 100% 29.71 in 2.5 mi North 6.9 mph - N/A   Overcast
6:44 AM 62.6 °F - 60.8 °F 94% 29.73 in 2.5 mi North 5.8 mph - N/A   Mostly Cloudy
6:51 AM 62.6 °F - 60.8 °F 94% 29.73 in 4.0 mi North 5.8 mph - N/A   Overcast
6:54 AM 62.1 °F - 61.0 °F 96% 29.70 in 4.0 mi North 5.8 mph - N/A   Overcast
7:32 AM 62.6 °F - 60.8 °F 94% 29.72 in 4.0 mi NE 3.5 mph - N/A   Overcast
7:54 AM 63.0 °F - 61.0 °F 93% 29.69 in 5.0 mi East 3.5 mph - N/A   Overcast
8:15 AM 64.4 °F - 60.8 °F 88% 29.71 in 6.0 mi East 3.5 mph - N/A   Scattered Clouds
8:54 AM 66.9 °F - 62.1 °F 84% 29.67 in 6.0 mi ENE 4.6 mph - N/A   Haze
9:47 AM 69.8 °F - 62.6 °F 78% 29.69 in 6.0 mi ESE 5.8 mph - N/A   Haze
9:54 AM 68.0 °F - 62.1 °F 81% 29.67 in 6.0 mi Calm Calm - N/A   Haze
10:17 AM 69.8 °F - 62.6 °F 78% 29.70 in 7.0 mi SSE 4.6 mph - N/A   Partly Cloudy
10:54 AM 71.1 °F - 63.0 °F 75% 29.69 in 8.0 mi SSE 5.8 mph - N/A   Partly Cloudy
11:54 AM 75.0 °F - 64.0 °F 69% 29.69 in 8.0 mi Calm Calm - N/A   Clear
12:54 PM 75.9 °F - 64.0 °F 67% 29.70 in 8.0 mi NE 4.6 mph - N/A   Partly Cloudy
1:54 PM 77.0 °F - 63.0 °F 62% 29.68 in 9.0 mi ENE 8.1 mph - N/A   Clear
2:54 PM 81.0 °F 81.7 °F 61.0 °F 50% 29.70 in 10.0 mi NNW 4.6 mph - N/A   Clear
3:54 PM 82.0 °F 82.7 °F 61.0 °F 49% 29.69 in 10.0 mi NE 8.1 mph - N/A   Clear
4:54 PM 82.0 °F 82.7 °F 61.0 °F 49% 29.63 in 10.0 mi NNE 15.0 mph - N/A   Clear
5:54 PM 81.0 °F 81.9 °F 62.1 °F 52% 29.62 in 10.0 mi ENE 11.5 mph 20.7 mph N/A   Clear
6:54 PM 80.1 °F 81.2 °F 62.1 °F 54% 29.62 in 10.0 mi East 12.7 mph - N/A   Scattered Clouds
7:54 PM 78.1 °F - 60.1 °F 54% 29.62 in 10.0 mi East 16.1 mph 24.2 mph N/A   Clear
8:54 PM 73.4 °F - 62.6 °F 69% 29.68 in 10.0 mi SE 18.4 mph 31.1 mph N/A Thunderstorm Thunderstorm
9:54 PM 66.9 °F - 61.0 °F 81% 29.69 in 10.0 mi South 5.8 mph - N/A Thunderstorm Thunderstorm
10:54 PM 66.0 °F - 61.0 °F 84% 29.65 in 10.0 mi Calm Calm - N/A Thunderstorm Thunderstorm
10:58 PM 66.2 °F - 60.8 °F 83% 29.67 in 10.0 mi SW 3.5 mph - N/A   Clear
11:54 PM 66.9 °F - 61.0 °F 81% 29.66 in 10.0 mi SSE 8.1 mph - N/A   Clear